Weather History for McMinnville, OR

Change the Weather History Date:

Tuesday, April 8, 2014

  Actual Average Record
Temperature  
Mean Temperature 56 °F 49 °F  
Max Temperature 69 °F 59 °F 85 °F (1923)
Min Temperature 43 °F 39 °F 24 °F (1931)
Degree Days  
Heating Degree Days 9 16  
Month to date heating degree days 104 130  
Since 1 July heating degree days 4035 4081  
Cooling Degree Days 0 0  
Month to date cooling degree days 0 0  
Year to date cooling degree days 0 0  
Growing Degree Days 6 (Base 50)    
Moisture  
Dew Point 49 °F    
Average Humidity 78    
Maximum Humidity 100    
Minimum Humidity 56    
Precipitation  
Precipitation 0.00 in 0.11 in 0.76 in (1972)
Month to date precipitation 0.36 0.97  
Year to date precipitation 15.97 15.54  
Sea Level Pressure  
Sea Level Pressure 30.17 in    
Wind  
Wind Speed 5 mph (WSW)    
Max Wind Speed 13 mph    
Max Gust Speed -    
Visibility 9 miles    
Events Fog    
T = Trace of Precipitation, MM = Missing Value Source: NWS Daily Summary

Daily Weather History Graph

Daily Weather History Graph

Search for Another Location

Airport:

Trip Planner

Search our weather history database for the weather conditions in past years. The results will help you decide how hot, cold, wet, or windy it might be!

Date:

Astronomy

Apr. 08, 2014 Rise Set
Actual Time 6:39 AM PDT 7:49 PM PDT
Civil Twilight 6:09 AM PDT 8:19 PM PDT
Nautical Twilight 5:33 AM PDT 8:56 PM PDT
Astronomical Twilight 4:55 AM PDT 9:34 PM PDT
Moon 1:32 PM PDT (4/8) 3:12 AM PDT (4/8)
Length of Visible Light 14h 10m
Length of Day
13h 09m
Waxing Gibbous, 63% of the Moon is Illuminated
Apr 8
Waxing Gibbous
Apr 15
Full
Apr 22
Last Quarter
Apr 28
New
May 6
First Quarter

Hourly Weather History & Observations

Time (PDT) Temp. Windchill Dew Point Humidity Pressure Visibility Wind Dir Wind Speed Gust Speed Precip Events Conditions
12:53 AM 50.0 °F - 48.0 °F 93% 30.19 in 10.0 mi SW 11.5 mph - N/A   Clear
1:53 AM 48.9 °F - 46.9 °F 93% 30.20 in 10.0 mi WSW 6.9 mph - N/A   Clear
2:53 AM 48.0 °F - 46.9 °F 96% 30.20 in 10.0 mi WSW 6.9 mph - N/A   Clear
3:53 AM 46.9 °F - 46.0 °F 97% 30.20 in 10.0 mi Calm Calm - N/A   Clear
5:53 AM 43.0 °F 41.3 °F 43.0 °F 100% 30.21 in 10.0 mi NNW 3.5 mph - N/A   Partly Cloudy
5:59 AM 43.0 °F 41.3 °F 43.0 °F 100% 30.20 in 1.8 mi NNW 3.5 mph - N/A   Mostly Cloudy
6:09 AM 44.1 °F 42.5 °F 44.1 °F 100% 30.20 in 0.5 mi NW 3.5 mph - N/A Fog Fog
6:21 AM 45.0 °F 43.5 °F 45.0 °F 100% 30.21 in 2.5 mi WNW 3.5 mph - N/A   Overcast
6:28 AM 45.0 °F - 45.0 °F 100% 30.20 in 10.0 mi Calm Calm - N/A   Overcast
6:53 AM 45.0 °F 43.5 °F 45.0 °F 100% 30.21 in 10.0 mi WNW 3.5 mph - N/A   Overcast
7:05 AM 45.0 °F - 45.0 °F 100% 30.21 in 1.8 mi Calm Calm - N/A   Overcast
7:13 AM 45.0 °F - 45.0 °F 100% 30.21 in 3.0 mi Calm Calm - N/A   Overcast
7:53 AM 46.0 °F - 46.0 °F 100% 30.21 in 10.0 mi Calm Calm - N/A   Overcast
8:29 AM 46.9 °F - 46.0 °F 97% 30.21 in 10.0 mi Calm Calm - N/A   Overcast
8:53 AM 48.0 °F - 46.9 °F 96% 30.21 in 10.0 mi Calm Calm - N/A   Overcast
9:53 AM 51.1 °F - 48.9 °F 92% 30.20 in 10.0 mi Calm Calm - N/A   Overcast
10:53 AM 53.1 °F - 50.0 °F 89% 30.20 in 10.0 mi Calm Calm - N/A   Overcast
11:37 AM 54.0 °F - 50.0 °F 86% 30.19 in 10.0 mi Calm Calm - N/A   Mostly Cloudy
11:53 AM 55.0 °F - 51.1 °F 86% 30.19 in 10.0 mi Calm Calm - N/A   Scattered Clouds
12:15 PM 55.9 °F - 52.0 °F 87% 30.18 in 10.0 mi WSW 3.5 mph - N/A   Mostly Cloudy
12:23 PM 57.9 °F - 51.1 °F 78% 30.18 in 10.0 mi Calm Calm - N/A   Scattered Clouds
12:53 PM 59.0 °F - 52.0 °F 78% 30.16 in 10.0 mi North - - N/A   Clear
1:53 PM 64.0 °F - 54.0 °F 70% 30.14 in 10.0 mi SSW 6.9 mph - N/A   Clear
2:53 PM 66.0 °F - 54.0 °F 65% 30.11 in 10.0 mi SSW 8.1 mph - N/A   Mostly Cloudy
3:53 PM 68.0 °F - 55.0 °F 63% 30.10 in 10.0 mi South 8.1 mph - N/A   Overcast
4:53 PM 66.9 °F - 50.0 °F 54% 30.10 in 10.0 mi WSW 9.2 mph - N/A   Overcast
5:53 PM 64.9 °F - 51.1 °F 61% 30.10 in 10.0 mi West 9.2 mph - N/A   Overcast
6:53 PM 62.1 °F - 51.1 °F 67% 30.10 in 10.0 mi West 12.7 mph - N/A   Overcast
7:53 PM 59.0 °F - 50.0 °F 72% 30.10 in 10.0 mi West 6.9 mph - N/A   Overcast
8:53 PM 57.0 °F - 50.0 °F 77% 30.11 in 10.0 mi WSW 5.8 mph - N/A   Overcast
9:53 PM 55.9 °F - 50.0 °F 80% 30.14 in 10.0 mi WSW 4.6 mph - N/A   Overcast
10:53 PM 54.0 °F - 51.1 °F 90% 30.16 in 10.0 mi WSW 8.1 mph - 0.00 in   Overcast
11:53 PM 55.0 °F - 51.1 °F 86% 30.18 in 10.0 mi SW 3.5 mph - N/A   Overcast